Weather History for LIRN - January, 2013

Change the Weather History Date:

Thursday, January 24, 2013

  Actual Average Record
Temperature  
Mean Temperature 48 °F -  
Max Temperature 53 °F 56 °F 64 °F (2001)
Min Temperature 44 °F 40 °F 30 °F (2004)
Degree Days  
Heating Degree Days 16    
Moisture  
Dew Point 44 °F    
Average Humidity 86    
Maximum Humidity 100    
Minimum Humidity 71    
Precipitation  
Precipitation 0.00 in 0.13 in - ()
Sea Level Pressure  
Sea Level Pressure 29.44 in    
Wind  
Wind Speed 4 mph ()    
Max Wind Speed 9 mph    
Max Gust Speed -    
Visibility 5.5 miles    
Events Rain    
Averages and records for this station are not official NWS values.
T = Trace of Precipitation, MM = Missing Value Source: Averaged Metar Reports

Daily Weather History Graph

Daily Weather History Graph

Search for Another Location

Airport or City:

Trip Planner

Search our weather history database for the weather conditions in past years. The results will help you decide how hot, cold, wet, or windy it might be!

Date:

Astronomy

Jan. 24, 2013 Rise Set
Actual Time 7:20 AM CET 5:10 PM CET
Civil Twilight 6:50 AM CET 5:39 PM CET
Nautical Twilight 6:17 AM CET 6:13 PM CET
Astronomical Twilight 5:44 AM CET 6:45 PM CET
Moon 2:56 PM CET (1/24) 5:05 AM CET (1/24)
Length of Visible Light 10h 49m
Length of Day
9h 50m
Waxing Gibbous, 93% of the Moon is Illuminated
Jan 24
Waxing Gibbous
Jan 27
Full
Feb 3
Last Quarter
Feb 10
New
Feb 17
First Quarter

Hourly Weather History & Observations

Time (CET) Temp. Windchill Dew Point Humidity Pressure Visibility Wind Dir Wind Speed Gust Speed Precip Events Conditions
12:20 AM 46.4 °F 43.5 °F 44.6 °F 93% 29.56 in 5.0 mi ENE 5.8 mph - N/A   Light Drizzle
12:50 AM 46.4 °F - 44.6 °F 93% 29.56 in 5.0 mi Variable 2.3 mph - N/A   Light Drizzle
1:20 AM 46.4 °F 45.2 °F 44.6 °F 93% 29.53 in 5.0 mi NE 3.5 mph - N/A   Drizzle
1:50 AM 46.4 °F 45.2 °F 44.6 °F 93% 29.50 in 3.1 mi North 3.5 mph - N/A Rain Rain
2:20 AM 44.6 °F 41.4 °F 42.8 °F 93% 29.53 in 3.1 mi NW 5.8 mph - N/A Rain Rain
2:50 AM 44.6 °F 40.7 °F 42.8 °F 93% 29.50 in - North 6.9 mph - N/A   Mostly Cloudy
3:20 AM 46.4 °F 44.3 °F 44.6 °F 93% 29.47 in 5.0 mi East 4.6 mph - N/A Rain Rain
3:50 AM 44.6 °F 43.1 °F 42.8 °F 93% 29.47 in 3.7 mi NW 3.5 mph - N/A Rain Rain
4:20 AM 44.6 °F 42.2 °F 42.8 °F 93% 29.47 in 3.7 mi East 4.6 mph - N/A Rain Rain
4:50 AM 44.6 °F 43.1 °F 44.6 °F 100% 29.47 in 2.5 mi ESE 3.5 mph - N/A Rain Rain
5:20 AM 44.6 °F - 44.6 °F 100% 29.47 in 2.5 mi Variable 2.3 mph - N/A Rain Rain
5:50 AM 44.6 °F 43.1 °F 44.6 °F 100% 29.44 in 3.1 mi Variable 3.5 mph - N/A Rain Rain
6:20 AM 44.6 °F 39.7 °F 44.6 °F 100% 29.44 in 5.0 mi ESE 9.2 mph - N/A Rain Rain
6:50 AM 44.6 °F 42.2 °F 44.6 °F 100% 29.44 in 6.2 mi ESE 4.6 mph - N/A Rain Light Rain
7:20 AM 44.6 °F - 44.6 °F 100% 29.44 in 6.2 mi Variable 1.2 mph - N/A Rain Light Rain
7:50 AM 44.6 °F 43.1 °F 44.6 °F 100% 29.44 in 3.7 mi NNW 3.5 mph - N/A Rain Rain
8:50 AM 44.6 °F 43.1 °F 42.8 °F 93% 29.44 in 4.3 mi NNE 3.5 mph - N/A Rain Light Rain
9:20 AM 46.4 °F 44.3 °F 44.6 °F 93% 29.44 in 6.2 mi East 4.6 mph - N/A   Mostly Cloudy
9:50 AM 48.2 °F - 44.6 °F 87% 29.42 in 6.2 mi ENE 3.5 mph - N/A   Mostly Cloudy
10:20 AM 48.2 °F - 46.4 °F 93% 29.42 in 6.2 mi ENE 4.6 mph - N/A   Scattered Clouds
10:50 AM 50.0 °F - 44.6 °F 82% 29.42 in 6.2 mi NE 5.8 mph - N/A   Scattered Clouds
11:20 AM 51.8 °F - 42.8 °F 71% 29.42 in 6.2 mi NE 4.6 mph - N/A   Scattered Clouds
11:50 AM 51.8 °F - 42.8 °F 71% 29.42 in 6.2 mi East 3.5 mph - N/A   Mostly Cloudy
12:20 PM 51.8 °F - 42.8 °F 71% 29.39 in 6.2 mi ENE 4.6 mph - N/A Rain Light Rain
12:50 PM 51.8 °F - 42.8 °F 71% 29.39 in 6.2 mi NNE 4.6 mph - N/A Rain Light Rain
1:20 PM 51.8 °F - 44.6 °F 76% 29.39 in 6.2 mi North 4.6 mph - N/A Rain Light Rain
1:50 PM 51.8 °F - 44.6 °F 76% 29.39 in 6.2 mi North 3.5 mph - N/A   Light Drizzle
2:20 PM 51.8 °F - 44.6 °F 76% 29.39 in 6.2 mi NNW 5.8 mph - N/A   Mostly Cloudy
2:50 PM 51.8 °F - 44.6 °F 76% 29.39 in 6.2 mi NW 3.5 mph - N/A   Scattered Clouds
3:20 PM 51.8 °F - 42.8 °F 71% 29.39 in 6.2 mi NW 4.6 mph - N/A   Scattered Clouds
3:50 PM 53.6 °F - 44.6 °F 72% 29.39 in 6.2 mi Variable 2.3 mph - N/A   Partly Cloudy
4:20 PM 51.8 °F - 44.6 °F 76% 29.39 in 6.2 mi WSW 3.5 mph - N/A   Partly Cloudy
4:50 PM 50.0 °F - 44.6 °F 82% 29.42 in 6.2 mi West 5.8 mph - N/A   Scattered Clouds
5:20 PM 48.2 °F - 42.8 °F 82% 29.42 in 6.2 mi West 6.9 mph - N/A   Scattered Clouds
5:50 PM 46.4 °F 43.5 °F 42.8 °F 87% 29.44 in 6.2 mi WSW 5.8 mph - N/A   Scattered Clouds
6:20 PM 50.0 °F - 44.6 °F 82% 29.44 in 6.2 mi SSW 3.5 mph - N/A   Scattered Clouds
6:50 PM 50.0 °F - 44.6 °F 82% 29.44 in 6.2 mi SW 3.5 mph - N/A   Scattered Clouds
7:20 PM 48.2 °F - 42.8 °F 82% 29.44 in 6.2 mi South 2.3 mph - N/A   Partly Cloudy
7:50 PM 48.2 °F - 44.6 °F 87% 29.44 in 6.2 mi Variable 2.3 mph - N/A   Partly Cloudy
8:20 PM 48.2 °F - 42.8 °F 82% 29.44 in 6.2 mi South 3.5 mph - N/A   Partly Cloudy
8:50 PM 48.2 °F - 42.8 °F 82% 29.44 in 6.2 mi SSW 3.5 mph - N/A   Scattered Clouds
9:20 PM 48.2 °F - 42.8 °F 82% 29.44 in 4.3 mi SSW 8.1 mph - N/A Rain Rain
9:50 PM 46.4 °F - 42.8 °F 87% 29.47 in 6.2 mi Variable 2.3 mph - N/A   Mostly Cloudy
10:20 PM 48.2 °F - 44.6 °F 87% 29.47 in 6.2 mi South 4.6 mph - N/A   Mostly Cloudy
10:50 PM 46.4 °F 45.2 °F 42.8 °F 87% 29.44 in 6.2 mi South 3.5 mph - N/A   Light Drizzle
11:20 PM 46.4 °F - 42.8 °F 87% 29.44 in 6.2 mi Variable 1.2 mph - N/A Rain Light Rain
11:50 PM 44.6 °F 43.1 °F 42.8 °F 93% 29.44 in 6.2 mi NNE 3.5 mph - N/A   Light Drizzle